{"data":{"norad_id":64258,"epoch":"2026-09-20T08:45:25.391808Z","epoch_age_seconds":149261,"freshness":"FRESH","line1":"1 64258U 25120C   26263.36487722  .00014162  00000+0  42950-3 0  9999","line2":"2 64258  53.1587 286.6393 0001032  96.5058 263.6063 15.34398426 73755","mean_motion":15.34398426,"eccentricity":0.0001032,"inclination_deg":53.1587,"raan_deg":286.6393,"arg_perigee_deg":96.5058,"mean_anomaly_deg":263.6063,"bstar":0.0004295,"rev_number":7375,"period_min":93.847854351227,"perigee_km":462.00194327522,"apogee_km":463.4138936664,"semimajor_km":6840.8449184708,"source":"CELESTRAK","updated_at":"2026-09-21T09:00:35.281769Z"}}